Time,TemperatureF,DewpointF,PressureIn,WindDirection,WindDirectionDegrees,WindSpeedMPH,WindSpeedGustMPH,Humidity,HourlyPrecipIn,Conditions,Clouds,dailyrainin,SoftwareType,DateUTC
2013-11-03 00:02:00,-999.0,-99.9,-100.00,SE,134,21.0,-999.0,-999,-99.99,,,-99.99,,2013-11-03 04:02:00,
2013-11-03 00:14:00,37.0,36.0,-100.00,SE,134,21.0,-999.0,97,-99.99,,,-99.99,,2013-11-03 04:14:00,
2013-11-03 00:23:00,36.0,36.0,-100.00,SSW,192,17.0,-999.0,97,-99.99,,,-99.99,,2013-11-03 04:23:00,
2013-11-03 00:44:00,36.0,36.0,-100.00,SSE,156,18.0,-999.0,97,-99.99,,,-99.99,,2013-11-03 04:44:00,
2013-11-03 01:43:00,36.0,35.0,-100.00,South,169,18.0,-999.0,97,-99.99,,,-99.99,,2013-11-03 05:43:00,
2013-11-03 01:12:00,36.0,35.0,-100.00,ESE,120,17.0,-999.0,97,-99.99,,,-99.99,,2013-11-03 06:12:00,
2013-11-03 01:43:00,35.0,34.0,-100.00,West,262,18.0,-999.0,97,-99.99,,,-99.99,,2013-11-03 06:43:00,
2013-11-03 02:22:00,34.0,33.0,-100.00,WSW,242,13.0,-999.0,96,-99.99,,,-99.99,,2013-11-03 07:22:00,
2013-11-03 02:42:00,34.0,33.0,-100.00,South,174,10.0,-999.0,97,-99.99,,,-99.99,,2013-11-03 07:42:00,
2013-11-03 03:21:00,34.0,34.0,-100.00,WSW,245,14.0,-999.0,97,-99.99,,,-99.99,,2013-11-03 08:21:00,
2013-11-03 03:42:00,34.0,33.0,-100.00,SW,235,18.0,-999.0,97,-99.99,,,-99.99,,2013-11-03 08:42:00,
2013-11-03 04:12:00,34.0,33.0,-100.00,South,172,11.0,-999.0,96,-99.99,,,-99.99,,2013-11-03 09:12:00,
2013-11-03 04:22:00,33.0,32.0,-100.00,SSW,206,19.0,-999.0,96,-99.99,,,-99.99,,2013-11-03 09:22:00,
2013-11-03 04:42:00,33.0,32.0,-100.00,SSW,197,15.0,-999.0,95,-99.99,,,-99.99,,2013-11-03 09:42:00,
2013-11-03 05:23:00,33.0,31.0,-100.00,SW,215,15.0,-999.0,94,-99.99,,,-99.99,,2013-11-03 10:23:00,
2013-11-03 06:22:00,32.0,30.0,-100.00,SE,128,13.0,-999.0,91,-99.99,,,-99.99,,2013-11-03 11:22:00,
2013-11-03 06:43:00,32.0,29.0,-100.00,SSW,210,20.0,-999.0,90,-99.99,,,-99.99,,2013-11-03 11:43:00,
2013-11-03 06:52:00,32.0,29.0,-100.00,South,169,16.0,-999.0,88,-99.99,,,-99.99,,2013-11-03 11:52:00,
2013-11-03 14:42:00,36.0,23.0,-100.00,SSW,201,18.0,-999.0,59,-99.99,,,-99.99,,2013-11-03 19:42:00,
2013-11-03 15:22:00,34.0,22.0,-100.00,South,174,16.0,-999.0,60,-99.99,,,-99.99,,2013-11-03 20:22:00,
2013-11-03 15:42:00,34.0,22.0,-100.00,SSW,207,15.0,-999.0,59,-99.99,,,-99.99,,2013-11-03 20:42:00,
2013-11-03 16:22:00,35.0,23.0,-100.00,West,269,9.0,-999.0,60,-99.99,,,-99.99,,2013-11-03 21:22:00,
2013-11-03 16:43:00,33.0,21.0,-100.00,West,259,14.0,-999.0,61,-99.99,,,-99.99,,2013-11-03 21:43:00,
2013-11-03 17:23:00,33.0,22.0,-100.00,SE,135,8.0,-999.0,63,-99.99,,,-99.99,,2013-11-03 22:23:00,
2013-11-03 17:43:00,32.0,22.0,-100.00,SSW,205,7.0,-999.0,65,-99.99,,,-99.99,,2013-11-03 22:43:00,
2013-11-03 18:23:00,31.0,21.0,-100.00,WSW,245,8.0,-999.0,66,-99.99,,,-99.99,,2013-11-03 23:23:00,
2013-11-03 18:42:00,29.0,21.0,-100.00,North,0,0.0,-999.0,70,-99.99,,,-99.99,,2013-11-03 23:42:00,
2013-11-03 19:42:00,29.0,21.0,-100.00,North,0,0.0,-999.0,72,-99.99,,,-99.99,,2013-11-04 00:42:00,
2013-11-03 20:22:00,29.0,22.0,-100.00,North,0,0.0,-999.0,73,-99.99,,,-99.99,,2013-11-04 01:22:00,
2013-11-03 20:42:00,29.0,22.0,-100.00,North,0,0.0,-999.0,73,-99.99,,,-99.99,,2013-11-04 01:42:00,
2013-11-03 21:22:00,29.0,22.0,-100.00,North,0,0.0,-999.0,74,-99.99,,,-99.99,,2013-11-04 02:22:00,
2013-11-03 21:42:00,29.0,22.0,-100.00,North,0,0.0,-999.0,75,-99.99,,,-99.99,,2013-11-04 02:42:00,
2013-11-03 22:44:00,28.0,21.0,-100.00,North,0,0.0,-999.0,77,-99.99,,,-99.99,,2013-11-04 03:44:00,